QPF
0.01 0.01 0.01 0.01 0.02 0.03 0.04 0.07 0.08 0.09 0.11 0.13 0.16 0.19 0.24 0.30 0.34 0.36 0.36 0.34 0.33 0.33 0.30 0.30 0.32 0.31 0.26 0.27 0.29 0.28 0.27 0.26 0.21 0.16 0.12 0.09 0.07 0.06 0.04 0.04 0.03 0.03 0.03
0.01 0.01 0.02 0.02 0.03 0.04 0.06 0.07 0.09 0.10 0.12 0.16 0.22 0.26 0.29 0.35 0.41 0.42 0.39 0.38 0.39 0.37 0.34 0.33 0.32 0.33 0.31 0.30 0.30 0.27 0.25 0.24 0.23 0.19 0.14 0.10 0.08 0.06 0.04 0.04 0.03 0.03 0.02
0.02 0.03 0.03 0.04 0.04 0.04 0.05 0.06 0.07 0.08 0.10 0.16 0.21 0.30 0.34 0.31 0.28 0.29 0.28 0.28 0.33 0.35 0.38 0.38 0.34 0.33 0.32 0.31 0.31 0.29 0.24 0.21 0.21 0.19 0.16 0.11 0.07 0.06 0.05 0.04 0.03 0.03 0.02
0.02 0.02 0.03 0.04 0.03 0.03 0.03 0.03 0.03 0.04 0.05 0.10 0.15 0.20 0.25 0.25 0.20 0.18 0.18 0.18 0.17 0.22 0.28 0.34 0.40 0.40 0.37 0.34 0.32 0.29 0.25 0.22 0.20 0.18 0.14 0.10 0.06 0.05 0.06 0.05 0.04 0.04 0.03
0.02 0.02 0.03 0.02 0.02 0.02 0.02 0.03 0.03 0.03 0.04 0.06 0.11 0.14 0.15 0.19 0.19 0.16 0.16 0.17 0.15 0.15 0.17 0.25 0.35 0.38 0.35 0.33 0.31 0.30 0.26 0.23 0.20 0.17 0.14 0.11 0.09 0.07 0.06 0.06 0.06 0.05 0.04
0.03 0.02 0.01 0.01 0.01 0.01 0.02 0.03 0.04 0.04 0.05 0.07 0.09 0.12 0.14 0.15 0.16 0.17 0.17 0.16 0.15 0.16 0.17 0.19 0.23 0.27 0.25 0.25 0.27 0.26 0.24 0.22 0.19 0.16 0.14 0.12 0.11 0.10 0.09 0.07 0.07 0.07 0.05
0.02 0.01 0.01 0.02 0.03 0.01 0.02 0.05 0.09 0.07 0.09 0.10 0.12 0.13 0.14 0.13 0.12 0.14 0.14 0.14 0.12 0.10 0.12 0.14 0.18 0.23 0.23 0.22 0.24 0.24 0.21 0.19 0.19 0.17 0.16 0.14 0.12 0.11 0.10 0.09 0.08 0.06 0.04
0.02 0.02 0.02 0.02 0.02 0.02 0.02 0.04 0.05 0.07 0.08 0.09 0.11 0.15 0.18 0.16 0.14 0.13 0.12 0.11 0.10 0.09 0.10 0.11 0.13 0.14 0.14 0.16 0.19 0.19 0.18 0.16 0.15 0.14 0.13 0.12 0.11 0.09 0.08 0.07 0.06 0.06 0.05
0.01 0.01 0.01 0.02 0.03 0.03 0.03 0.05 0.05 0.05 0.08 0.10 0.11 0.14 0.19 0.19 0.18 0.16 0.12 0.09 0.06 0.07 0.09 0.08 0.09 0.11 0.12 0.12 0.14 0.16 0.15 0.13 0.11 0.10 0.09 0.10 0.10 0.09 0.08 0.07 0.06 0.05 0.05
0.01 0.01 0.01 0.02 0.03 0.04 0.04 0.05 0.06 0.06 0.07 0.10 0.11 0.14 0.20 0.18 0.16 0.13 0.11 0.09 0.07 0.05 0.06 0.06 0.06 0.07 0.10 0.12 0.12 0.12 0.10 0.09 0.08 0.07 0.07 0.07 0.06 0.06 0.06 0.06 0.05 0.03 0.03
0.01 0.00 0.01 0.01 0.02 0.03 0.04 0.04 0.06 0.05 0.06 0.09 0.10 0.11 0.17 0.17 0.11 0.09 0.08 0.08 0.08 0.06 0.04 0.03 0.05 0.06 0.06 0.06 0.08 0.09 0.08 0.06 0.04 0.03 0.04 0.04 0.04 0.03 0.02 0.02 0.03 0.03 0.02
0.01 0.01 0.01 0.01 0.01 0.03 0.04 0.05 0.08 0.06 0.05 0.06 0.08 0.11 0.13 0.12 0.08 0.07 0.05 0.05 0.05 0.05 0.04 0.03 0.03 0.05 0.05 0.05 0.06 0.06 0.05 0.04 0.03 0.02 0.02 0.02 0.02 0.01 0.01 0.01 0.01 0.01 0.01
0.01 0.01 0.00 0.01 0.02 0.04 0.04 0.05 0.07 0.07 0.06 0.06 0.09 0.10 0.10 0.10 0.09 0.07 0.05 0.04 0.04 0.04 0.06 0.05 0.04 0.04 0.05 0.06 0.06 0.07 0.05 0.04 0.03 0.02 0.02 0.02 0.01 0.00 0.00 0.00 0.00 0.00 0.00
0.01 0.01 0.01 0.01 0.03 0.05 0.05 0.06 0.08 0.08 0.07 0.06 0.09 0.11 0.10 0.09 0.10 0.09 0.06 0.04 0.03 0.04 0.05 0.03 0.03 0.02 0.02 0.03 0.05 0.05 0.04 0.03 0.03 0.02 0.02 0.01 0.01 0.00 0.00 0.00 0.00 0.00 0.00
0.00 0.01 0.02 0.02 0.03 0.04 0.05 0.06 0.08 0.09 0.09 0.08 0.08 0.10 0.10 0.09 0.09 0.10 0.08 0.06 0.04 0.04 0.04 0.03 0.02 0.01 0.01 0.02 0.02 0.02 0.02 0.01 0.01 0.01 0.01 0.01 0.01 0.00 0.00 0.00 0.00 0.00 0.00
0.01 0.01 0.02 0.03 0.04 0.04 0.05 0.06 0.09 0.10 0.11 0.11 0.10 0.10 0.09 0.08 0.08 0.08 0.09 0.08 0.06 0.04 0.04 0.04 0.04 0.03 0.02 0.02 0.01 0.01 0.01 0.00 0.00 0.01 0.00 0.00 0.00 0.00 0.00 0.00 0.00 0.00 0.00
0.01 0.01 0.02 0.03 0.04 0.05 0.05 0.06 0.08 0.10 0.11 0.13 0.11 0.11 0.10 0.09 0.09 0.07 0.07 0.08 0.07 0.05 0.04 0.03 0.02 0.02 0.01 0.01 0.01 0.01 0.00 0.00 0.00 0.00 0.00 0.00 0.00 0.00 0.00 0.00 0.00 0.00 0.00
0.01 0.01 0.02 0.03 0.03 0.05 0.07 0.05 0.06 0.07 0.11 0.14 0.14 0.12 0.10 0.08 0.07 0.07 0.07 0.05 0.04 0.05 0.04 0.03 0.02 0.01 0.01 0.01 0.01 0.00 0.00 0.00 0.00 0.00 0.00 0.00 0.00 0.00 0.00 0.00 0.00 0.00 0.00
0.02 0.02 0.02 0.02 0.03 0.05 0.06 0.05 0.05 0.06 0.10 0.13 0.14 0.13 0.10 0.07 0.06 0.06 0.07 0.05 0.04 0.03 0.03 0.02 0.01 0.01 0.00 0.00 0.01 0.01 0.01 0.00 0.00 0.00 0.00 0.00 0.00 0.00 0.00 0.00 0.00 0.00 0.00
0.02 0.02 0.02 0.02 0.03 0.03 0.03 0.04 0.05 0.06 0.09 0.12 0.13 0.11 0.09 0.08 0.08 0.06 0.05 0.04 0.04 0.03 0.02 0.01 0.01 0.01 0.01 0.00 0.00 0.01 0.01 0.01 0.00 0.00 0.00 0.00 0.00 0.00 0.00 0.00 0.00 0.00 0.00
0.01 0.02 0.02 0.03 0.04 0.04 0.04 0.05 0.05 0.07 0.08 0.09 0.10 0.09 0.08 0.07 0.07 0.06 0.04 0.03 0.03 0.03 0.02 0.03 0.02 0.02 0.02 0.01 0.00 0.00 0.00 0.00 0.00 0.00 0.00 0.00 0.00 0.00 0.00 0.00 0.00 0.00 0.00
0.02 0.02 0.02 0.04 0.05 0.06 0.06 0.06 0.06 0.07 0.06 0.07 0.08 0.07 0.06 0.06 0.05 0.04 0.03 0.02 0.02 0.02 0.02 0.02 0.02 0.02 0.02 0.01 0.01 0.00 0.00 0.00 0.00 0.00 0.00 0.00 0.00 0.00 0.00 0.00 0.00 0.00 0.00
0.03 0.03 0.04 0.05 0.06 0.06 0.06 0.06 0.06 0.07 0.06 0.06 0.07 0.06 0.05 0.03 0.03 0.03 0.02 0.01 0.01 0.00 0.01 0.01 0.01 0.01 0.01 0.01 0.00 0.00 0.00 0.00 0.00 0.00 0.00 0.00 0.00 0.00 0.00 0.00 0.00 0.00 0.00
0.04 0.04 0.04 0.04 0.04 0.04 0.04 0.04 0.04 0.05 0.05 0.05 0.05 0.05 0.04 0.03 0.02 0.02 0.01 0.01 0.00 0.00 0.00 0.01 0.01 0.01 0.00 0.00 0.00 0.00 0.00 0.00 0.00 0.00 0.00 0.00 0.00 0.00 0.00 0.00 0.00 0.00 0.00
0.04 0.04 0.04 0.04 0.03 0.03 0.03 0.02 0.02 0.02 0.02 0.03 0.04 0.03 0.03 0.02 0.01 0.01 0.01 0.01 0.01 0.00 0.00 0.00 0.00 0.00 0.00 0.00 0.00 0.00 0.00 0.00 0.00 0.00 0.00 0.00 0.00 0.00 0.00 0.00 0.00 0.00 0.00
0.03 0.03 0.03 0.03 0.03 0.03 0.02 0.01 0.01 0.01 0.02 0.02 0.02 0.02 0.02 0.01 0.01 0.01 0.00 0.00 0.00 0.00 0.00 0.00 0.00 0.00 0.00 0.00 0.00 0.00 0.00 0.00 0.00 0.00 0.00 0.00 0.00 0.00 0.00 0.00 0.00 0.00 0.00
MSLP
1011.25 1010.79 1010.38 1010.04 1009.81 1009.70 1009.73 1009.90 1010.18 1010.56 1010.98 1011.43 1011.87 1012.27 1012.63 1012.95 1013.23 1013.49 1013.73 1013.97 1014.23 1014.51 1014.81 1015.16 1015.56 1016.02 1016.55 1017.17 1017.87 1018.65 1019.50 1020.38 1021.27 1022.13 1022.93 1023.63 1024.22 1024.68 1025.02 1025.24 1025.36 1025.41 1025.41
1011.91 1011.50 1011.11 1010.76 1010.49 1010.32 1010.26 1010.32 1010.50 1010.78 1011.12 1011.51 1011.89 1012.25 1012.58 1012.85 1013.08 1013.28 1013.46 1013.64 1013.84 1014.07 1014.35 1014.67 1015.06 1015.52 1016.06 1016.69 1017.40 1018.20 1019.07 1019.98 1020.91 1021.82 1022.69 1023.47 1024.16 1024.74 1025.19 1025.52 1025.76 1025.91 1025.99
1012.53 1012.20 1011.88 1011.56 1011.27 1011.04 1010.89 1010.84 1010.91 1011.08 1011.33 1011.65 1011.98 1012.31 1012.60 1012.85 1013.05 1013.20 1013.33 1013.45 1013.59 1013.76 1013.98 1014.27 1014.63 1015.08 1015.61 1016.23 1016.94 1017.73 1018.59 1019.51 1020.45 1021.39 1022.29 1023.14 1023.91 1024.58 1025.15 1025.61 1025.97 1026.24 1026.43
1013.04 1012.84 1012.61 1012.34 1012.06 1011.78 1011.55 1011.39 1011.34 1011.40 1011.57 1011.82 1012.12 1012.44 1012.73 1012.97 1013.16 1013.30 1013.39 1013.46 1013.55 1013.66 1013.82 1014.06 1014.38 1014.79 1015.29 1015.89 1016.58 1017.35 1018.18 1019.07 1019.99 1020.92 1021.83 1022.70 1023.51 1024.26 1024.92 1025.49 1025.98 1026.38 1026.70
1013.45 1013.38 1013.25 1013.04 1012.76 1012.45 1012.14 1011.88 1011.73 1011.70 1011.79 1012.01 1012.30 1012.63 1012.95 1013.23 1013.44 1013.58 1013.67 1013.71 1013.74 1013.80 1013.90 1014.08 1014.35 1014.72 1015.19 1015.75 1016.40 1017.14 1017.93 1018.77 1019.64 1020.51 1021.39 1022.23 1023.05 1023.82 1024.54 1025.20 1025.80 1026.32 1026.76
1013.76 1013.81 1013.77 1013.62 1013.35 1012.99 1012.62 1012.28 1012.03 1011.93 1011.98 1012.18 1012.49 1012.86 1013.24 1013.58 1013.85 1014.03 1014.13 1014.17 1014.17 1014.18 1014.23 1014.35 1014.57 1014.90 1015.33 1015.85 1016.47 1017.15 1017.89 1018.66 1019.44 1020.24 1021.03 1021.82 1022.59 1023.34 1024.08 1024.79 1025.46 1026.08 1026.63
1013.99 1014.15 1014.19 1014.07 1013.80 1013.42 1012.98 1012.57 1012.26 1012.10 1012.13 1012.34 1012.68 1013.12 1013.59 1014.01 1014.36 1014.60 1014.73 1014.78 1014.77 1014.75 1014.76 1014.84 1015.02 1015.30 1015.70 1016.19 1016.77 1017.40 1018.07 1018.75 1019.44 1020.13 1020.82 1021.50 1022.19 1022.89 1023.61 1024.33 1025.04 1025.73 1026.37
1014.20 1014.42 1014.51 1014.42 1014.15 1013.74 1013.26 1012.79 1012.44 1012.25 1012.27 1012.50 1012.90 1013.41 1013.95 1014.47 1014.90 1015.21 1015.39 1015.46 1015.46 1015.43 1015.41 1015.47 1015.62 1015.88 1016.26 1016.72 1017.26 1017.85 1018.45 1019.05 1019.64 1020.21 1020.77 1021.34 1021.92 1022.54 1023.20 1023.91 1024.63 1025.36 1026.06
1014.39 1014.66 1014.78 1014.71 1014.43 1014.00 1013.49 1013.00 1012.62 1012.43 1012.45 1012.71 1013.15 1013.72 1014.34 1014.93 1015.43 1015.80 1016.03 1016.13 1016.15 1016.12 1016.11 1016.16 1016.31 1016.57 1016.93 1017.38 1017.90 1018.44 1018.99 1019.52 1020.01 1020.47 1020.91 1021.36 1021.84 1022.36 1022.95 1023.61 1024.32 1025.06 1025.79
1014.60 1014.90 1015.04 1014.97 1014.70 1014.27 1013.75 1013.25 1012.87 1012.67 1012.71 1012.99 1013.46 1014.07 1014.73 1015.37 1015.92 1016.33 1016.60 1016.74 1016.79 1016.79 1016.79 1016.86 1017.03 1017.29 1017.67 1018.12 1018.62 1019.15 1019.65 1020.11 1020.53 1020.90 1021.24 1021.58 1021.95 1022.39 1022.91 1023.51 1024.19 1024.92 1025.65
1014.82 1015.15 1015.31 1015.26 1015.00 1014.58 1014.08 1013.60 1013.23 1013.05 1013.10 1013.38 1013.86 1014.47 1015.14 1015.79 1016.35 1016.79 1017.09 1017.26 1017.34 1017.38 1017.43 1017.53 1017.73 1018.03 1018.42 1018.89 1019.39 1019.91 1020.38 1020.80 1021.16 1021.47 1021.73 1022.00 1022.29 1022.66 1023.11 1023.66 1024.30 1024.99 1025.71
1015.07 1015.42 1015.60 1015.57 1015.34 1014.95 1014.49 1014.05 1013.71 1013.56 1013.62 1013.89 1014.35 1014.94 1015.58 1016.21 1016.76 1017.19 1017.51 1017.71 1017.83 1017.92 1018.02 1018.18 1018.43 1018.77 1019.19 1019.68 1020.19 1020.69 1021.16 1021.55 1021.88 1022.14 1022.36 1022.57 1022.82 1023.12 1023.52 1024.02 1024.61 1025.26 1025.94
1015.34 1015.72 1015.92 1015.92 1015.72 1015.39 1014.99 1014.60 1014.31 1014.19 1014.26 1014.51 1014.94 1015.47 1016.06 1016.64 1017.15 1017.58 1017.90 1018.13 1018.30 1018.45 1018.61 1018.84 1019.14 1019.52 1019.98 1020.48 1021.00 1021.50 1021.95 1022.33 1022.64 1022.88 1023.08 1023.27 1023.48 1023.75 1024.10 1024.55 1025.09 1025.68 1026.30
1015.65 1016.04 1016.26 1016.28 1016.14 1015.86 1015.53 1015.22 1014.99 1014.90 1014.98 1015.22 1015.60 1016.08 1016.60 1017.12 1017.59 1017.99 1018.31 1018.58 1018.80 1019.01 1019.25 1019.54 1019.89 1020.31 1020.79 1021.30 1021.81 1022.30 1022.74 1023.11 1023.41 1023.64 1023.83 1024.01 1024.21 1024.45 1024.77 1025.17 1025.64 1026.16 1026.71
1015.98 1016.38 1016.60 1016.65 1016.55 1016.34 1016.09 1015.85 1015.70 1015.66 1015.75 1015.98 1016.32 1016.74 1017.20 1017.66 1018.08 1018.47 1018.80 1019.10 1019.37 1019.65 1019.96 1020.30 1020.70 1021.15 1021.63 1022.13 1022.62 1023.09 1023.50 1023.86 1024.15 1024.38 1024.57 1024.75 1024.94 1025.16 1025.44 1025.78 1026.18 1026.63 1027.09
1016.33 1016.71 1016.93 1016.99 1016.93 1016.79 1016.62 1016.48 1016.39 1016.41 1016.53 1016.76 1017.07 1017.44 1017.85 1018.26 1018.66 1019.03 1019.38 1019.72 1020.04 1020.38 1020.74 1021.13 1021.55 1022.00 1022.47 1022.95 1023.40 1023.83 1024.22 1024.55 1024.83 1025.06 1025.25 1025.43 1025.61 1025.81 1026.05 1026.33 1026.65 1027.00 1027.37
1016.67 1017.02 1017.22 1017.30 1017.28 1017.20 1017.12 1017.06 1017.06 1017.14 1017.30 1017.54 1017.84 1018.19 1018.56 1018.94 1019.32 1019.70 1020.07 1020.43 1020.80 1021.18 1021.58 1021.99 1022.42 1022.86 1023.29 1023.72 1024.13 1024.51 1024.86 1025.16 1025.43 1025.66 1025.86 1026.03 1026.21 1026.38 1026.57 1026.79 1027.02 1027.27 1027.53
1017.00 1017.30 1017.48 1017.56 1017.58 1017.57 1017.57 1017.60 1017.68 1017.83 1018.04 1018.31 1018.62 1018.95 1019.31 1019.68 1020.06 1020.44 1020.83 1021.22 1021.62 1022.03 1022.44 1022.85 1023.26 1023.66 1024.05 1024.43 1024.78 1025.11 1025.41 1025.69 1025.94 1026.17 1026.37 1026.55 1026.71 1026.86 1027.00 1027.15 1027.30 1027.45 1027.60
1017.31 1017.56 1017.72 1017.81 1017.86 1017.92 1017.99 1018.11 1018.28 1018.50 1018.76 1019.06 1019.39 1019.74 1020.10 1020.46 1020.84 1021.23 1021.62 1022.03 1022.44 1022.86 1023.26 1023.66 1024.03 1024.39 1024.72 1025.04 1025.33 1025.61 1025.88 1026.14 1026.38 1026.61 1026.82 1026.99 1027.15 1027.27 1027.37 1027.45 1027.51 1027.57 1027.63
1017.60 1017.81 1017.95 1018.06 1018.16 1018.27 1018.42 1018.62 1018.86 1019.15 1019.46 1019.80 1020.15 1020.51 1020.88 1021.25 1021.63 1022.02 1022.42 1022.83 1023.23 1023.63 1024.02 1024.38 1024.71 1025.02 1025.30 1025.56 1025.81 1026.05 1026.29 1026.53 1026.77 1027.00 1027.21 1027.39 1027.53 1027.64 1027.70 1027.72 1027.72 1027.70 1027.67
1017.89 1018.08 1018.23 1018.36 1018.50 1018.67 1018.89 1019.15 1019.45 1019.79 1020.15 1020.53 1020.90 1021.27 1021.65 1022.02 1022.40 1022.78 1023.17 1023.57 1023.95 1024.33 1024.68 1025.00 1025.29 1025.55 1025.78 1026.00 1026.22 1026.43 1026.66 1026.89 1027.13 1027.36 1027.58 1027.76 1027.89 1027.98 1028.01 1027.99 1027.93 1027.85 1027.75
1018.22 1018.41 1018.57 1018.73 1018.91 1019.13 1019.40 1019.71 1020.06 1020.44 1020.83 1021.22 1021.61 1021.99 1022.36 1022.74 1023.11 1023.48 1023.86 1024.23 1024.59 1024.93 1025.25 1025.53 1025.78 1026.01 1026.21 1026.40 1026.59 1026.80 1027.01 1027.24 1027.48 1027.71 1027.92 1028.09 1028.22 1028.29 1028.29 1028.25 1028.16 1028.04 1027.90
1018.62 1018.81 1019.00 1019.19 1019.41 1019.67 1019.96 1020.31 1020.68 1021.07 1021.47 1021.87 1022.26 1022.64 1023.01 1023.38 1023.74 1024.11 1024.46 1024.81 1025.14 1025.45 1025.74 1025.99 1026.21 1026.41 1026.60 1026.78 1026.96 1027.16 1027.37 1027.59 1027.82 1028.03 1028.23 1028.39 1028.50 1028.55 1028.54 1028.48 1028.37 1028.23 1028.08
1019.10 1019.31 1019.52 1019.74 1019.98 1020.25 1020.56 1020.90 1021.27 1021.66 1022.05 1022.45 1022.83 1023.21 1023.58 1023.94 1024.29 1024.64 1024.98 1025.30 1025.61 1025.90 1026.16 1026.40 1026.61 1026.80 1026.98 1027.15 1027.33 1027.52 1027.72 1027.93 1028.13 1028.32 1028.49 1028.62 1028.70 1028.73 1028.71 1028.65 1028.54 1028.41 1028.27
1019.66 1019.89 1020.11 1020.33 1020.58 1020.85 1021.15 1021.47 1021.82 1022.19 1022.56 1022.94 1023.31 1023.69 1024.05 1024.40 1024.75 1025.09 1025.42 1025.73 1026.03 1026.30 1026.55 1026.77 1026.98 1027.17 1027.35 1027.53 1027.71 1027.88 1028.07 1028.24 1028.41 1028.56 1028.69 1028.78 1028.82 1028.83 1028.80 1028.74 1028.65 1028.54 1028.42
1020.24 1020.47 1020.70 1020.92 1021.16 1021.41 1021.68 1021.98 1022.30 1022.63 1022.98 1023.34 1023.71 1024.07 1024.43 1024.79 1025.14 1025.47 1025.80 1026.10 1026.39 1026.66 1026.90 1027.13 1027.34 1027.53 1027.71 1027.89 1028.06 1028.22 1028.38 1028.52 1028.64 1028.74 1028.81 1028.85 1028.86 1028.84 1028.80 1028.75 1028.69 1028.61 1028.53
Thickness
5694 5696 5698 5699 5699 5700 5700 5699 5699 5700 5700 5700 5699 5699 5698 5697 5697 5697 5697 5697 5698 5699 5698 5698 5697 5698 5697 5697 5695 5691 5688 5685 5684 5680 5675 5673 5673 5673 5672 5672 5672 5670 5669
5684 5686 5688 5689 5688 5688 5689 5689 5689 5690 5690 5692 5693 5692 5692 5692 5691 5690 5689 5689 5691 5693 5693 5691 5692 5692 5693 5692 5690 5688 5684 5681 5680 5678 5672 5666 5663 5663 5662 5662 5662 5661 5660
5674 5675 5676 5677 5677 5677 5678 5679 5680 5680 5682 5684 5685 5685 5684 5684 5683 5682 5682 5683 5684 5685 5686 5686 5687 5687 5688 5688 5687 5685 5684 5679 5676 5677 5673 5667 5663 5656 5653 5652 5653 5652 5651
5663 5664 5665 5666 5666 5667 5668 5670 5670 5672 5673 5675 5676 5676 5676 5676 5676 5674 5674 5675 5676 5678 5678 5679 5681 5681 5683 5683 5683 5682 5681 5678 5673 5671 5672 5672 5669 5660 5650 5644 5644 5643 5641
5653 5653 5654 5655 5656 5657 5658 5659 5661 5663 5665 5667 5668 5668 5668 5668 5667 5666 5666 5667 5668 5669 5671 5672 5674 5675 5676 5677 5678 5678 5677 5675 5672 5670 5668 5665 5662 5661 5655 5644 5637 5634 5631
5644 5644 5645 5645 5646 5646 5648 5648 5651 5653 5655 5657 5658 5660 5660 5660 5658 5658 5658 5659 5659 5659 5662 5664 5666 5667 5669 5670 5672 5673 5672 5671 5669 5667 5666 5664 5661 5656 5652 5644 5635 5628 5623
5635 5635 5634 5634 5634 5635 5636 5638 5640 5642 5644 5646 5648 5651 5652 5652 5651 5651 5651 5651 5650 5650 5653 5655 5656 5658 5661 5662 5664 5665 5665 5664 5663 5662 5660 5659 5658 5655 5650 5642 5630 5622 5615
5626 5625 5623 5623 5623 5625 5626 5627 5629 5631 5633 5636 5638 5641 5641 5642 5641 5641 5641 5641 5641 5642 5643 5645 5647 5650 5652 5654 5655 5656 5656 5655 5655 5654 5652 5651 5650 5649 5646 5639 5629 5617 5608
5618 5616 5614 5613 5613 5614 5616 5617 5619 5621 5624 5626 5628 5629 5630 5631 5630 5630 5630 5631 5632 5633 5634 5635 5638 5641 5643 5644 5646 5646 5645 5645 5644 5644 5643 5643 5640 5639 5636 5633 5628 5620 5608
5611 5608 5605 5604 5604 5605 5606 5609 5610 5611 5614 5616 5618 5618 5619 5620 5620 5620 5620 5621 5622 5624 5625 5626 5628 5631 5632 5634 5636 5635 5634 5634 5633 5633 5633 5631 5630 5628 5625 5621 5617 5614 5609
5603 5599 5596 5595 5595 5596 5598 5600 5600 5602 5603 5604 5606 5607 5608 5608 5609 5609 5610 5611 5611 5613 5614 5615 5618 5620 5622 5623 5625 5624 5623 5623 5621 5621 5621 5619 5618 5616 5613 5610 5607 5604 5600
5595 5591 5589 5587 5586 5587 5588 5589 5590 5591 5592 5593 5594 5596 5596 5598 5598 5598 5599 5600 5601 5602 5604 5606 5607 5609 5610 5611 5613 5612 5612 5611 5610 5609 5609 5607 5606 5604 5602 5599 5596 5593 5589
5587 5583 5580 5578 5577 5577 5577 5578 5580 5580 5581 5582 5583 5585 5585 5586 5587 5587 5588 5590 5591 5592 5593 5595 5596 5597 5598 5599 5600 5600 5600 5599 5598 5598 5598 5596 5595 5593 5591 5588 5585 5581 5577
5579 5574 5570 5568 5566 5566 5567 5568 5568 5569 5570 5572 5573 5574 5574 5575 5576 5577 5578 5579 5580 5581 5582 5583 5585 5586 5587 5587 5588 5588 5588 5587 5587 5586 5585 5584 5583 5582 5580 5577 5573 5570 5565
5572 5567 5563 5559 5557 5557 5557 5558 5558 5558 5560 5561 5562 5563 5563 5564 5565 5566 5566 5567 5568 5569 5570 5572 5573 5574 5576 5576 5576 5576 5576 5576 5575 5574 5573 5572 5571 5570 5569 5566 5562 5558 5554
5565 5560 5555 5552 5549 5547 5547 5548 5547 5548 5550 5551 5552 5552 5553 5554 5554 5555 5555 5556 5556 5557 5559 5560 5561 5562 5563 5564 5564 5564 5564 5563 5563 5561 5560 5560 5559 5558 5557 5554 5551 5548 5544
5558 5552 5547 5544 5541 5539 5538 5538 5538 5539 5540 5541 5543 5543 5544 5544 5544 5544 5544 5544 5545 5546 5546 5547 5549 5549 5550 5552 5553 5553 5552 5551 5550 5549 5549 5548 5547 5546 5544 5542 5539 5536 5533
5550 5544 5539 5535 5533 5531 5530 5530 5530 5531 5532 5533 5534 5534 5534 5534 5534 5534 5533 5534 5535 5535 5535 5536 5538 5539 5539 5541 5542 5541 5541 5539 5538 5537 5537 5536 5535 5534 5533 5531 5528 5525 5522
5542 5536 5531 5528 5525 5524 5522 5522 5522 5523 5524 5525 5525 5525 5526 5526 5525 5524 5524 5524 5525 5525 5525 5527 5528 5529 5529 5531 5532 5532 5530 5527 5526 5526 5526 5526 5524 5523 5523 5521 5518 5515 5512
5534 5529 5524 5521 5518 5517 5516 5516 5515 5516 5516 5517 5517 5517 5517 5517 5516 5516 5515 5516 5517 5517 5518 5518 5519 5520 5520 5521 5522 5522 5520 5518 5516 5516 5515 5515 5515 5513 5512 5511 5508 5506 5503
5527 5522 5519 5515 5513 5511 5511 5510 5509 5509 5509 5510 5510 5510 5510 5509 5509 5509 5509 5509 5510 5510 5510 5510 5510 5510 5511 5512 5512 5513 5512 5510 5508 5507 5506 5506 5505 5505 5503 5502 5500 5498 5496
5521 5517 5513 5510 5508 5507 5506 5505 5504 5503 5503 5504 5503 5503 5503 5503 5503 5503 5503 5503 5503 5503 5502 5502 5501 5501 5502 5503 5504 5504 5504 5502 5501 5499 5498 5498 5498 5497 5496 5495 5494 5492 5491
5517 5512 5508 5505 5503 5502 5502 5501 5499 5499 5498 5498 5497 5497 5497 5497 5498 5498 5497 5496 5496 5497 5496 5496 5495 5494 5494 5495 5495 5496 5496 5495 5494 5493 5492 5492 5492 5491 5490 5489 5488 5487 5486
5512 5508 5505 5501 5498 5498 5497 5497 5496 5496 5495 5493 5492 5492 5492 5492 5492 5492 5492 5492 5491 5491 5491 5490 5489 5488 5488 5488 5488 5488 5488 5488 5488 5487 5487 5486 5486 5485 5484 5483 5481 5480 5479
5509 5505 5502 5498 5496 5494 5494 5494 5493 5493 5491 5489 5488 5487 5487 5487 5486 5486 5486 5487 5487 5488 5488 5486 5485 5484 5484 5483 5483 5483 5483 5483 5483 5482 5482 5482 5481 5480 5478 5477 5476 5475 5474
5507 5503 5500 5497 5494 5493 5492 5491 5490 5490 5488 5486 5484 5483 5483 5483 5483 5483 5482 5482 5484 5484 5484 5483 5482 5481 5480 5480 5479 5480 5480 5480 5480 5479 5477 5476 5475 5474 5473 5472 5471 5470 5469